[[{"header":{"parameterUnit":"m.s-1","parameterCategory":1,"la1":30.2991,"la2":30.254,"lo1":-89.0895,"lo2":-89.0444,"dy":0.0017,"dx":0.0017,"nx":28,"ny":28,"refTime":"2025-04-16T03:00:00:Z","depth":0,"parameterNumber":2,"parameterNumberName":"U-component_of_WINDS"},"data":[0,0,0,0,0,0,0,0,0,0,0,0,0,0,0,0,0,0,0,0,0,0,0,0,0,0,0,0,0,0,0,0,0,0,0,0,0,0,0,0,0,0,0,0,0,0,0,0,0,0,0,0,0,0,0,0,0,0,-2.4106,-2.4107,0,-2.4164,-2.4165,-2.4165,-2.4047,-2.4043,-2.404,-2.4036,-2.41,-2.4105,-2.411,0,0,0,0,0,0,0,0,0,0,0,0,0,-2.3895,-2.39,-2.4106,-2.4107,-2.4107,-2.4164,-2.4165,-2.4166,-2.4048,-2.4043,-2.4039,-2.4034,-2.4098,-2.4104,-2.411,0,0,0,0,0,0,0,0,0,0,0,0,0,-2.3974,-2.3901,-2.4106,-2.4055,-2.4051,-2.4164,-2.4165,-2.4166,-2.4049,-2.4043,-2.4037,-2.4032,-2.4096,-2.4104,-2.4111,-2.4277,0,0,-2.4136,-2.4139,0,0,0,0,0,0,0,0,-2.3969,-2.3981,-2.4062,-2.4059,-2.4055,-2.4092,-2.4114,-2.4203,-2.405,-2.405,-2.4036,-2.4029,-2.4102,-2.4109,-2.4133,-2.428,-2.4282,-2.4136,-2.4141,-2.4145,-2.4147,0,0,0,0,0,0,0,-2.3964,-2.3978,-2.4129,-2.4063,-2.4059,-2.4031,-2.4035,-2.413,-2.4108,-2.405,-2.4041,-2.4049,-2.4099,-2.4126,-2.4134,-2.4283,-2.4136,-2.4143,-2.4148,-2.4151,-2.4568,-2.4574,0,0,0,0,0,0,-2.3964,-2.3974,-2.4127,-2.4131,-2.3997,-2.4039,-2.4044,-2.4086,-2.4107,-2.4104,-2.4054,-2.4044,-2.4115,-2.4125,-2.4135,-2.4331,-2.4145,-2.4152,-2.4157,-2.4562,-2.457,-2.4576,0,0,0,0,0,0,-2.396,-2.3979,-2.4125,-2.405,-2.4067,-2.4049,-2.4097,-2.4091,-2.4117,-2.411,-2.4106,-2.4086,-2.4111,-2.4124,-2.4242,-2.4332,-2.4156,-2.4163,-2.4554,-2.4564,-2.4573,-2.4724,0,0,0,0,0,0,-2.3955,-2.3978,-2.4041,-2.4053,-2.4071,-2.4231,-2.4102,-2.4096,-2.413,-2.4117,-2.4138,-2.4136,-2.4107,-2.4231,-2.425,-2.434,-2.4169,-2.4546,-2.4559,-2.457,-2.4711,-2.4737,-2.476,0,0,0,0,0,-2.3948,-2.4082,-2.4045,-2.4064,-2.4149,-2.4236,-2.4247,-2.4209,-2.4138,-2.4201,-2.4196,-2.4136,-2.4318,-2.4244,-2.4265,-2.4358,-2.4541,-2.4555,-2.4569,-2.47,-2.4732,-2.4759,0,0,0,0,0,0,-2.4083,-2.4083,-2.4041,-2.4183,-2.421,-2.4216,-2.4294,-2.4245,-2.4294,-2.4279,-2.4232,-2.4237,-2.4365,-2.4372,-2.429,-2.4518,-2.4417,-2.4436,-2.451,-2.454,-2.4564,-2.4562,-2.4176,0,0,0,0,0,-2.4129,-2.4199,-2.4195,-2.4321,-2.4336,-2.4313,-2.435,-2.4318,-2.4345,-2.4356,-2.436,-2.439,-2.4453,-2.4496,-2.4555,-2.471,-2.4713,-2.4784,-2.4808,-2.4828,-2.4847,-2.493,-2.4961,-2.4623,-2.4623,-2.4623,0,0,-2.4226,-2.4234,-2.4282,-2.4348,-2.4365,-2.444,-2.4324,-2.4408,-2.4463,-2.4369,-2.4481,-2.4485,-2.4514,-2.4652,-2.4712,-2.4662,-2.494,-2.4846,-2.4863,-2.487,-2.4948,-2.498,-2.5008,-2.4633,-2.4631,-2.4629,0,0,-2.4441,-2.4453,-2.4559,-2.4578,-2.4605,-2.4589,-2.4614,-2.4627,-2.4625,-2.4736,-2.4667,-2.4732,-2.4843,-2.4866,-2.4893,-2.5114,-2.5061,-2.5134,-2.5264,-2.5345,-2.5372,-2.5396,-2.5476,-2.5506,-2.5151,-2.5152,-2.5152,0,-2.4559,-2.4667,-2.4621,-2.4709,-2.4741,-2.4657,-2.4765,-2.4785,-2.4831,-2.4855,-2.4797,-2.4933,-2.4947,-2.5089,-2.5143,-2.5166,-2.5195,-2.5134,-2.5372,-2.5395,-2.5416,-2.5493,-2.5523,-2.5161,-2.516,-2.5159,-2.5158,0,-2.4811,-2.4887,-2.497,-2.5014,-2.5054,-2.5153,-2.5122,-2.5168,-2.5132,-2.5122,-2.5235,-2.5248,-2.5308,-2.5338,-2.5304,-2.5476,-2.5443,-2.5379,-2.5277,-2.5458,-2.5529,-2.5558,-2.5174,-2.517,-2.5168,-2.5165,0,0,-2.5118,-2.5132,-2.5164,-2.5183,-2.5205,-2.5263,-2.5357,-2.5413,-2.5455,-2.5487,-2.5566,-2.566,-2.56,-2.5631,-2.5598,-2.5669,-2.5845,-2.5596,-2.5596,-2.5644,-2.6036,-2.6087,-2.6122,-2.5808,-2.5813,-2.5817,-2.6035,0,-2.5332,-2.5493,-2.5452,-2.5612,-2.5682,-2.5602,-2.5683,-2.5706,-2.5698,-2.5757,-2.5748,-2.5816,-2.5731,-2.5749,-2.5815,-2.581,-2.5924,-2.5793,-2.5883,-2.5886,-2.5881,-2.6158,-2.6212,-2.6417,-2.6062,-2.6066,-2.607,0,-2.5605,-2.5647,-2.5814,-2.5823,-2.5851,-2.5926,-2.5974,-2.603,-2.6054,-2.6043,-2.6076,-2.6029,-2.6121,-2.6016,-2.6144,-2.6056,-2.6089,-2.6092,-2.6098,-2.6109,-2.5992,-2.6179,-2.6481,-2.6513,-2.6113,-2.6109,-2.6106,0,-2.5815,-2.5913,-2.6025,-2.6043,-2.6057,-2.6111,-2.6119,-2.6137,-2.6173,-2.6215,-2.6238,-2.629,-2.632,-2.6362,-2.633,-2.6256,-2.6464,-2.6355,-2.6459,-2.6461,-2.651,-2.6508,-2.6826,-2.6527,-2.6526,-2.6526,-2.6525,0,-2.6061,-2.6167,-2.6119,-2.6189,-2.6305,-2.6257,-2.6373,-2.6372,-2.6388,-2.6456,-2.6389,-2.6455,-2.6407,-2.6469,-2.6445,-2.6555,-2.6569,-2.6563,-2.6557,-2.6572,-2.6573,-2.6596,-2.6582,-2.6534,-2.6532,-2.653,-2.6529,0,-2.6317,-2.6289,-2.6407,-2.6408,-2.6411,-2.6497,-2.6499,-2.6564,-2.6549,-2.6636,-2.6654,-2.6632,-2.6701,-2.6672,-2.6746,-2.6729,-2.6871,-2.6844,-2.6864,-2.6858,-2.6964,-2.6956,-2.731,-2.7355,-2.7025,-2.7028,-2.7031,0,-2.6478,-2.6557,-2.6567,-2.6607,-2.662,-2.6685,-2.6721,-2.6676,-2.6716,-2.6748,-2.6809,-2.6872,-2.692,-2.7034,-2.7026,-2.7081,-2.7056,-2.7176,-2.7065,-2.7077,-2.7061,-2.7058,-2.7067,-2.72,-2.7204,-2.7207,-2.721,0,-2.6767,-2.6749,-2.6803,-2.6852,-2.6896,-2.6933,-2.6964,-2.7001,-2.6956,-2.7005,-2.7074,-2.7111,-2.7185,-2.7249,-2.7297,-2.7306,-2.7252,-2.7244,-2.7272,-2.729,-2.7299,-2.7298,-2.6928,-2.7238,-2.7235,-2.7233,-2.7231,-2.723,-2.6982,-2.7049,-2.7066,-2.7128,-2.7146,-2.7176,-2.7237,-2.7228,-2.7285,-2.734,-2.7309,-2.7391,-2.7411,-2.747,-2.7486,-2.7549,-2.7502,-2.7542,-2.7552,-2.7563,-2.7578,-2.7286,-2.7557,-2.7556,-2.7556,-2.7555,-2.7554,0,-2.727,-2.7276,-2.7333,-2.7378,-2.7427,-2.7368,-2.7398,-2.7444,-2.7515,-2.7538,-2.7586,-2.7665,-2.7726,-2.772,-2.7776,-2.7827,-2.7804,-2.7844,-2.7842,-2.7845,-2.7616,-2.7588,-2.7862,-2.7862,-2.7862,-2.7862,-2.7862,-2.7862,-2.7426,-2.7536,-2.752,-2.7637,-2.7642,-2.772,-2.7743,-2.777,-2.7788,-2.7879,-2.7929,-2.7923,-2.7935,-2.799,-2.8044,-2.804,-2.8065,-2.8116,-2.8104,-2.7891,-2.7861,-2.7832,-2.7805,-2.8121,-2.8121,-2.8327,-2.8329,-2.833]},{"header":{"parameterUnit":"m.s-1","parameterCategory":1,"la1":30.2991,"la2":30.254,"lo1":-89.0895,"lo2":-89.0444,"dy":0.0017,"dx":0.0017,"nx":28,"ny":28,"refTime":"2025-04-16T03:00:00:Z","depth":0,"parameterNumber":3,"parameterNumberName":"V-component_of_WINDS"},"data":[0,0,0,0,0,0,0,0,0,0,0,0,0,0,0,0,0,0,0,0,0,0,0,0,0,0,0,0,0,0,0,0,0,0,0,0,0,0,0,0,0,0,0,0,0,0,0,0,0,0,0,0,0,0,0,0,0,0,-3.9921,-3.9922,0,-3.9995,-3.9996,-3.9997,-3.9939,-3.9937,-3.9935,-3.9932,-4.0005,-4.0009,-4.0013,0,0,0,0,0,0,0,0,0,0,0,0,0,-3.9724,-3.9728,-3.9921,-3.9922,-3.9923,-3.9995,-3.9996,-3.9997,-3.994,-3.9937,-3.9934,-3.9931,-4.0003,-4.0008,-4.0013,0,0,0,0,0,0,0,0,0,0,0,0,0,-3.9805,-3.9729,-3.9921,-3.9903,-3.9902,-3.9995,-3.9996,-3.9998,-3.9941,-3.9937,-3.9933,-3.993,-4.0002,-4.0008,-4.0014,-4.0127,0,0,-4.0033,-4.0036,0,0,0,0,0,0,0,0,-3.9801,-3.9812,-3.9905,-3.9904,-3.9904,-3.9954,-3.9953,-4.0041,-3.9941,-3.9926,-3.9932,-3.9928,-3.9991,-3.9998,-4.002,-4.0131,-4.0134,-4.0034,-4.0038,-4.0041,-4.0042,0,0,0,0,0,0,0,-3.9795,-3.9809,-3.995,-3.9906,-3.9905,-3.989,-3.9897,-3.997,-3.9978,-3.9927,-3.9923,-3.9933,-3.999,-4.0014,-4.0021,-4.0135,-4.0034,-4.0039,-4.0043,-4.0046,-4.0341,-4.0345,0,0,0,0,0,0,-3.9792,-3.9804,-3.9948,-3.9952,-3.9842,-3.9896,-3.9904,-3.9942,-3.9977,-3.9979,-3.9936,-3.993,-4.0005,-4.0014,-4.0023,-4.0157,-4.004,-4.0046,-4.005,-4.0337,-4.0342,-4.0346,0,0,0,0,0,0,-3.9788,-3.9805,-3.9945,-3.9877,-3.9894,-3.9904,-3.9946,-3.9945,-3.9969,-3.9984,-3.9985,-3.9959,-4.0002,-4.0014,-4.0102,-4.0159,-4.0049,-4.0055,-4.0332,-4.0338,-4.0344,-4.0427,0,0,0,0,0,0,-3.9782,-3.9804,-3.9848,-3.9879,-3.9898,-4.0024,-3.9949,-3.9949,-3.9981,-3.9974,-4.0006,-4.0008,-4.0,-4.0093,-4.0108,-4.0166,-4.006,-4.0327,-4.0335,-4.0342,-4.0419,-4.0435,-4.0449,0,0,0,0,0,-3.9775,-3.9868,-3.9851,-3.9868,-3.9954,-4.0027,-4.0038,-4.0028,-3.9986,-4.0029,-4.0039,-4.0007,-4.015,-4.0102,-4.0119,-4.0179,-4.0323,-4.0333,-4.0341,-4.0412,-4.0432,-4.0448,0,0,0,0,0,0,-3.9843,-3.9872,-3.9853,-3.9959,-3.9991,-4.0017,-4.0072,-4.0049,-4.0094,-4.0085,-4.007,-4.0078,-4.0169,-4.0183,-4.0129,-4.029,-4.023,-4.0243,-4.0278,-4.0297,-4.0311,-4.0306,-4.0065,0,0,0,0,0,-3.987,-3.9929,-3.995,-4.0042,-4.0059,-4.0063,-4.0095,-4.0085,-4.0117,-4.013,-4.0146,-4.0177,-4.0229,-4.0263,-4.0312,-4.0421,-4.0426,-4.047,-4.0485,-4.0497,-4.0509,-4.0565,-4.0585,-4.0376,-4.0376,-4.0376,0,0,-3.9927,-3.995,-3.9988,-4.0056,-4.008,-4.0139,-4.0075,-4.0141,-4.0184,-4.0139,-4.0223,-4.0236,-4.027,-4.0368,-4.0412,-4.0382,-4.0568,-4.0509,-4.0519,-4.0523,-4.0577,-4.0597,-4.0614,-4.0382,-4.0381,-4.038,0,0,-4.0061,-4.0085,-4.0163,-4.0188,-4.0226,-4.0228,-4.0246,-4.0276,-4.0283,-4.0367,-4.0334,-4.0385,-4.0476,-4.0501,-4.0525,-4.0668,-4.064,-4.0684,-4.0761,-4.0817,-4.0833,-4.0848,-4.0898,-4.0916,-4.0695,-4.0695,-4.0695,0,-4.0126,-4.0216,-4.0206,-4.0274,-4.0304,-4.0267,-4.0345,-4.037,-4.0421,-4.0442,-4.0408,-4.052,-4.054,-4.0643,-4.0678,-4.0699,-4.0719,-4.068,-4.0832,-4.0847,-4.086,-4.0907,-4.0926,-4.07,-4.07,-4.0699,-4.0699,0,-4.0294,-4.0357,-4.0415,-4.0467,-4.0503,-4.0576,-4.0575,-4.0613,-4.0599,-4.0604,-4.0689,-4.0712,-4.0765,-4.0788,-4.0776,-4.089,-4.087,-4.0835,-4.0773,-4.0885,-4.0929,-4.0947,-4.0708,-4.0706,-4.0704,-4.0703,0,0,-4.0473,-4.0517,-4.0539,-4.0561,-4.0599,-4.0647,-4.0717,-4.0769,-4.0802,-4.0838,-4.0895,-4.0972,-4.094,-4.0968,-4.0957,-4.1006,-4.1116,-4.0964,-4.0965,-4.0991,-4.1241,-4.1267,-4.1289,-4.1098,-4.1101,-4.1104,-4.1238,0,-4.0608,-4.0732,-4.0724,-4.084,-4.0897,-4.0863,-4.0924,-4.0953,-4.0959,-4.1007,-4.1013,-4.1068,-4.1021,-4.1038,-4.1085,-4.1093,-4.1166,-4.1083,-4.115,-4.1152,-4.1142,-4.1312,-4.134,-4.1466,-4.1256,-4.1258,-4.1261,0,-4.0782,-4.0825,-4.0948,-4.0976,-4.1,-4.1055,-4.1102,-4.1149,-4.118,-4.1181,-4.1213,-4.1193,-4.1262,-4.12,-4.1294,-4.1238,-4.1265,-4.1273,-4.1277,-4.1282,-4.1213,-4.1321,-4.1506,-4.1524,-4.1288,-4.1286,-4.1284,0,-4.0899,-4.0988,-4.1072,-4.1092,-4.1128,-4.1168,-4.1184,-4.1212,-4.1244,-4.1284,-4.1304,-4.1351,-4.1377,-4.1413,-4.1407,-4.1362,-4.1502,-4.144,-4.1504,-4.1504,-4.1535,-4.1533,-4.1725,-4.1553,-4.1553,-4.1552,-4.1552,0,-4.1051,-4.1126,-4.1125,-4.1177,-4.126,-4.125,-4.1332,-4.1343,-4.1369,-4.1421,-4.1393,-4.1442,-4.1431,-4.148,-4.1475,-4.1553,-4.1565,-4.1566,-4.1564,-4.1568,-4.1568,-4.1585,-4.1576,-4.1557,-4.1556,-4.1555,-4.1555,0,-4.1195,-4.1198,-4.1287,-4.1314,-4.1322,-4.1383,-4.1404,-4.1452,-4.1456,-4.1523,-4.1537,-4.1543,-4.1599,-4.1596,-4.1659,-4.1655,-4.1751,-4.1739,-4.1741,-4.1738,-4.1802,-4.1796,-4.2012,-4.2039,-4.185,-4.1852,-4.1853,0,-4.1292,-4.1349,-4.1382,-4.1416,-4.1435,-4.149,-4.1522,-4.1513,-4.1547,-4.1587,-4.163,-4.1683,-4.1725,-4.1815,-4.1824,-4.1871,-4.1859,-4.1932,-4.1866,-4.1869,-4.1859,-4.1856,-4.1861,-4.1944,-4.1947,-4.1948,-4.195,0,-4.1462,-4.146,-4.1508,-4.1557,-4.1597,-4.1634,-4.1669,-4.1697,-4.1692,-4.1731,-4.1789,-4.1821,-4.1885,-4.1938,-4.1983,-4.1997,-4.1973,-4.197,-4.1987,-4.1992,-4.1991,-4.1992,-4.1775,-4.1965,-4.1964,-4.1963,-4.1962,-4.1961,-4.1585,-4.1634,-4.1665,-4.1719,-4.1744,-4.1777,-4.1823,-4.1833,-4.1881,-4.1934,-4.1925,-4.1988,-4.2016,-4.2075,-4.2094,-4.2142,-4.2116,-4.2141,-4.2147,-4.2154,-4.216,-4.1984,-4.215,-4.215,-4.2149,-4.2149,-4.2149,0,-4.1753,-4.1771,-4.1821,-4.1871,-4.1913,-4.1887,-4.1923,-4.196,-4.2017,-4.2046,-4.2088,-4.2153,-4.2203,-4.2216,-4.2264,-4.23,-4.229,-4.2313,-4.231,-4.2314,-4.2181,-4.2161,-4.2321,-4.2321,-4.2321,-4.2321,-4.2321,-4.2321,-4.1845,-4.1927,-4.1929,-4.2022,-4.2039,-4.2102,-4.2125,-4.2154,-4.2177,-4.2251,-4.2294,-4.2302,-4.2324,-4.2373,-4.2418,-4.242,-4.2439,-4.2467,-4.2464,-4.234,-4.2323,-4.2307,-4.2288,-4.2471,-4.2471,-4.2592,-4.2593,-4.2594]}]]